Snowfall_Accumulation
1.1 0.0 0.0 0.0 0.0 0.0 0.0 0.0 0.0 0.0 0.0 0.0 0.0 0.0 0.0 0.0 0.0 0.0 0.0 0.0 0.0 0.0 0.0 0.0 0.0 0.0 0.0
0.1 0.0 0.0 0.0 0.0 0.0 0.0 0.0 0.0 0.0 0.0 0.0 0.0 0.0 0.0 0.0 0.1 0.0 0.0 0.0 0.0 0.0 0.0 0.0 0.0 0.0 0.0
0.1 0.0 0.0 0.0 0.0 0.0 0.0 0.0 0.0 0.0 0.0 0.0 0.0 0.0 0.0 0.0 0.0 0.4 0.2 0.0 0.0 0.0 0.0 0.0 0.0 0.0 0.0
0.1 1.2 0.3 0.1 0.4 0.2 0.0 0.0 0.0 0.0 0.0 0.0 0.0 0.0 0.0 0.0 0.0 0.0 0.0 0.0 0.0 0.1 0.0 0.0 0.0 0.0 0.0
2.7 1.7 1.4 0.0 0.0 0.0 0.1 0.0 0.1 0.0 0.0 0.0 0.0 0.0 0.0 0.0 0.0 0.0 0.0 0.1 0.1 0.2 0.2 0.1 0.2 0.0 0.0
4.6 0.9 0.1 0.1 0.0 0.2 1.3 1.3 1.4 0.0 0.2 0.2 0.0 0.0 0.0 0.0 0.0 0.0 0.1 0.2 0.0 0.5 0.6 0.7 0.0 0.0 0.0
0.5 0.3 0.4 0.1 1.9 2.5 1.8 3.3 2.3 0.0 0.3 0.4 0.0 0.0 0.0 0.0 0.0 0.0 0.1 0.1 0.2 0.4 0.7 0.6 0.7 0.0 0.0
0.2 0.4 1.1 0.7 1.4 2.6 3.4 2.0 0.4 0.1 0.3 1.9 0.2 0.1 0.0 0.0 0.0 0.0 0.0 0.2 0.4 0.7 0.7 0.7 0.8 0.6 0.3
0.6 0.5 0.3 0.0 0.0 2.3 2.8 3.1 2.3 0.2 0.1 0.7 0.3 0.4 0.2 0.1 0.0 0.0 0.4 0.1 0.6 0.4 0.6 0.4 0.6 0.3 0.0
0.1 0.1 0.0 0.0 0.0 0.6 5.4 10.9 5.2 3.8 0.1 4.4 1.7 1.4 5.1 2.1 1.7 1.4 0.1 0.0 0.0 0.1 0.3 0.5 0.4 0.7 1.0
0.0 0.0 0.0 0.0 0.2 0.7 2.5 9.0 12.2 7.8 0.2 9.0 10.4 1.2 8.4 5.3 3.5 3.7 2.9 0.1 0.2 0.0 0.0 0.4 0.7 0.8 3.2
0.2 0.3 0.2 0.2 0.2 0.3 0.4 2.3 4.3 8.9 2.9 4.8 20.3 10.8 13.6 9.4 5.3 5.1 2.6 3.9 2.4 1.4 0.6 0.6 0.6 1.2 1.3
2.3 1.6 2.2 1.6 2.9 5.0 6.8 7.0 7.9 9.1 9.1 8.0 11.8 12.0 12.9 12.6 8.5 5.3 6.9 6.1 4.7 6.5 4.5 2.2 3.0 1.7 2.2
4.5 3.9 5.3 6.0 6.1 7.3 11.5 9.3 10.6 8.3 6.5 6.5 7.8 10.1 10.3 7.2 10.2 8.7 6.8 11.1 10.3 9.9 9.6 5.0 1.7 0.9 0.8
3.9 3.9 4.2 6.5 6.9 8.4 12.9 11.9 11.1 8.5 6.2 6.1 7.3 5.3 5.2 7.1 13.3 8.7 11.3 9.8 11.2 14.8 12.5 6.8 5.2 2.2 1.6
6.3 6.6 8.2 10.4 12.7 14.2 14.5 13.8 12.5 8.3 9.4 6.6 7.0 8.6 9.4 6.1 10.9 13.6 12.3 12.8 15.6 17.0 14.1 8.2 7.1 4.2 0.2
9.3 9.1 11.4 14.2 16.5 15.4 13.6 12.8 11.0 8.7 6.8 6.4 9.7 13.5 15.8 8.9 7.0 10.1 16.2 14.8 12.2 12.9 13.6 8.9 9.1 7.0 0.8